QPF
0.00 0.00 0.00 0.00 0.00 0.00 0.00 0.00 0.00 0.00 0.00 0.00 0.00 0.00 0.00 0.00 0.00 0.00 0.00 0.00 0.00 0.00 0.00 0.00 0.00 0.00 0.00 0.00 0.00 0.00 0.00 0.00 0.00 0.00 0.00 0.00 0.00 0.00 0.00 0.00 0.00 0.00 0.04 0.10
0.00 0.00 0.00 0.00 0.00 0.00 0.00 0.00 0.00 0.00 0.00 0.00 0.00 0.00 0.00 0.00 0.00 0.00 0.00 0.00 0.00 0.00 0.00 0.00 0.00 0.00 0.00 0.00 0.00 0.00 0.00 0.00 0.00 0.00 0.00 0.00 0.00 0.00 0.00 0.00 0.00 0.02 0.05 0.01
0.00 0.00 0.00 0.00 0.00 0.00 0.00 0.00 0.00 0.00 0.00 0.00 0.00 0.00 0.00 0.00 0.00 0.00 0.00 0.00 0.00 0.00 0.00 0.00 0.00 0.00 0.00 0.00 0.00 0.00 0.00 0.00 0.00 0.00 0.00 0.00 0.00 0.00 0.00 0.00 0.00 0.01 0.00 0.00
0.00 0.00 0.00 0.00 0.00 0.00 0.00 0.00 0.00 0.00 0.00 0.00 0.00 0.00 0.00 0.00 0.00 0.00 0.00 0.00 0.00 0.00 0.00 0.00 0.00 0.00 0.00 0.00 0.00 0.00 0.00 0.00 0.00 0.00 0.00 0.00 0.00 0.00 0.00 0.00 0.01 0.05 0.02 0.00
0.00 0.00 0.00 0.00 0.00 0.00 0.00 0.00 0.00 0.00 0.00 0.00 0.00 0.00 0.00 0.00 0.00 0.00 0.00 0.00 0.00 0.00 0.00 0.00 0.00 0.00 0.00 0.00 0.00 0.00 0.00 0.00 0.00 0.00 0.00 0.00 0.00 0.00 0.00 0.00 0.00 0.10 0.05 0.00
0.00 0.00 0.00 0.00 0.00 0.00 0.00 0.00 0.00 0.00 0.00 0.00 0.00 0.00 0.00 0.00 0.00 0.00 0.00 0.00 0.00 0.00 0.00 0.00 0.00 0.00 0.00 0.00 0.00 0.00 0.00 0.00 0.00 0.00 0.00 0.00 0.00 0.01 0.01 0.00 0.00 0.03 0.01 0.00
0.01 0.00 0.00 0.00 0.00 0.00 0.00 0.00 0.00 0.00 0.00 0.00 0.00 0.00 0.00 0.00 0.00 0.00 0.00 0.00 0.00 0.00 0.00 0.00 0.00 0.00 0.00 0.00 0.00 0.00 0.00 0.00 0.00 0.00 0.00 0.00 0.00 0.01 0.00 0.00 0.00 0.00 0.00 0.00
0.04 0.00 0.00 0.00 0.00 0.00 0.00 0.00 0.00 0.00 0.00 0.00 0.00 0.00 0.00 0.00 0.00 0.00 0.00 0.00 0.00 0.00 0.00 0.00 0.00 0.00 0.00 0.00 0.00 0.00 0.00 0.00 0.00 0.00 0.00 0.00 0.00 0.00 0.00 0.00 0.00 0.00 0.00 0.00
0.03 0.02 0.03 0.02 0.01 0.00 0.00 0.00 0.00 0.00 0.00 0.00 0.00 0.00 0.00 0.00 0.00 0.00 0.00 0.00 0.00 0.00 0.00 0.00 0.00 0.00 0.00 0.00 0.00 0.00 0.00 0.00 0.00 0.00 0.00 0.00 0.00 0.00 0.00 0.00 0.00 0.00 0.00 0.00
0.00 0.00 0.01 0.01 0.01 0.00 0.00 0.00 0.00 0.00 0.00 0.00 0.00 0.00 0.00 0.00 0.00 0.00 0.00 0.00 0.00 0.00 0.00 0.00 0.00 0.00 0.00 0.00 0.00 0.00 0.00 0.00 0.00 0.00 0.00 0.00 0.00 0.00 0.00 0.00 0.00 0.00 0.00 0.00
0.00 0.00 0.00 0.00 0.00 0.00 0.00 0.00 0.00 0.00 0.00 0.00 0.00 0.00 0.00 0.00 0.00 0.00 0.00 0.00 0.00 0.00 0.00 0.00 0.00 0.00 0.00 0.00 0.00 0.00 0.00 0.00 0.00 0.00 0.00 0.00 0.00 0.00 0.00 0.00 0.00 0.00 0.00 0.00
0.00 0.00 0.00 0.00 0.00 0.00 0.00 0.00 0.00 0.00 0.00 0.00 0.00 0.00 0.00 0.00 0.00 0.00 0.00 0.00 0.00 0.00 0.00 0.00 0.00 0.00 0.00 0.00 0.00 0.00 0.00 0.00 0.00 0.00 0.00 0.00 0.00 0.00 0.00 0.00 0.00 0.00 0.00 0.00
0.01 0.00 0.00 0.00 0.00 0.00 0.00 0.00 0.00 0.00 0.00 0.00 0.00 0.00 0.00 0.00 0.00 0.00 0.00 0.00 0.00 0.00 0.00 0.00 0.00 0.00 0.00 0.00 0.00 0.00 0.00 0.00 0.00 0.00 0.00 0.00 0.00 0.00 0.00 0.00 0.00 0.00 0.00 0.00
0.02 0.00 0.00 0.00 0.00 0.00 0.00 0.00 0.00 0.00 0.00 0.00 0.00 0.00 0.00 0.00 0.00 0.00 0.00 0.00 0.00 0.00 0.00 0.00 0.00 0.00 0.00 0.00 0.00 0.00 0.00 0.00 0.00 0.00 0.00 0.00 0.00 0.00 0.00 0.00 0.00 0.00 0.00 0.00
0.00 0.00 0.00 0.00 0.00 0.00 0.00 0.00 0.00 0.00 0.00 0.00 0.00 0.00 0.00 0.00 0.00 0.00 0.00 0.00 0.00 0.00 0.00 0.00 0.00 0.00 0.00 0.00 0.00 0.00 0.00 0.00 0.00 0.00 0.00 0.00 0.00 0.00 0.00 0.00 0.00 0.00 0.00 0.00
0.01 0.00 0.00 0.00 0.00 0.00 0.01 0.00 0.00 0.00 0.00 0.00 0.00 0.00 0.00 0.00 0.00 0.00 0.00 0.00 0.00 0.00 0.00 0.00 0.00 0.00 0.00 0.00 0.00 0.00 0.00 0.00 0.00 0.00 0.00 0.00 0.00 0.00 0.00 0.00 0.00 0.00 0.00 0.00
0.01 0.01 0.01 0.00 0.00 0.00 0.00 0.00 0.00 0.00 0.00 0.00 0.00 0.00 0.00 0.00 0.00 0.00 0.00 0.00 0.00 0.00 0.00 0.00 0.00 0.00 0.00 0.00 0.00 0.00 0.00 0.00 0.00 0.00 0.00 0.00 0.00 0.00 0.00 0.00 0.00 0.00 0.00 0.00
0.01 0.01 0.02 0.00 0.00 0.02 0.01 0.05 0.01 0.00 0.00 0.00 0.00 0.00 0.00 0.00 0.00 0.00 0.00 0.00 0.00 0.00 0.00 0.00 0.00 0.00 0.00 0.00 0.00 0.00 0.00 0.00 0.00 0.00 0.00 0.00 0.00 0.00 0.00 0.00 0.00 0.00 0.00 0.00
0.00 0.00 0.01 0.00 0.01 0.07 0.03 0.03 0.03 0.00 0.00 0.00 0.00 0.00 0.00 0.00 0.00 0.00 0.00 0.00 0.01 0.00 0.00 0.00 0.00 0.00 0.00 0.00 0.00 0.00 0.00 0.00 0.00 0.00 0.00 0.00 0.00 0.00 0.00 0.00 0.00 0.00 0.00 0.00
0.04 0.00 0.01 0.01 0.04 0.06 0.15 0.11 0.04 0.01 0.01 0.02 0.00 0.00 0.00 0.00 0.00 0.00 0.00 0.02 0.08 0.09 0.01 0.00 0.00 0.00 0.00 0.00 0.00 0.00 0.00 0.00 0.00 0.00 0.00 0.00 0.00 0.00 0.00 0.00 0.00 0.00 0.00 0.00
0.15 0.04 0.03 0.02 0.07 0.01 0.01 0.03 0.07 0.03 0.01 0.01 0.00 0.00 0.00 0.00 0.00 0.00 0.00 0.06 0.07 0.06 0.01 0.00 0.00 0.00 0.00 0.00 0.00 0.00 0.00 0.00 0.00 0.00 0.00 0.00 0.00 0.00 0.00 0.00 0.00 0.00 0.00 0.00
0.11 0.08 0.06 0.07 0.11 0.13 0.24 0.16 0.06 0.01 0.01 0.01 0.00 0.00 0.00 0.00 0.00 0.00 0.00 0.12 0.05 0.05 0.03 0.00 0.00 0.00 0.00 0.00 0.00 0.00 0.00 0.00 0.00 0.00 0.00 0.00 0.00 0.00 0.00 0.00 0.00 0.00 0.00 0.00
0.19 0.17 0.11 0.17 0.22 0.31 0.39 0.45 0.31 0.06 0.04 0.01 0.02 0.02 0.00 0.00 0.00 0.00 0.00 0.03 0.02 0.03 0.05 0.00 0.00 0.00 0.00 0.00 0.00 0.00 0.00 0.00 0.00 0.00 0.00 0.00 0.00 0.00 0.00 0.00 0.00 0.01 0.03 0.00
0.17 0.20 0.23 0.23 0.27 0.37 0.54 0.52 0.24 0.05 0.08 0.02 0.06 0.04 0.01 0.00 0.00 0.00 0.00 0.00 0.00 0.01 0.04 0.02 0.00 0.00 0.00 0.00 0.00 0.00 0.00 0.00 0.00 0.00 0.00 0.00 0.00 0.00 0.00 0.00 0.00 0.02 0.02 0.00
0.05 0.08 0.15 0.11 0.17 0.33 0.69 0.55 0.05 0.04 0.21 0.05 0.05 0.04 0.03 0.01 0.00 0.00 0.00 0.00 0.00 0.00 0.01 0.01 0.00 0.00 0.00 0.00 0.00 0.00 0.00 0.00 0.00 0.00 0.00 0.00 0.00 0.00 0.00 0.00 0.00 0.01 0.00 0.00
0.00 0.00 0.02 0.05 0.21 0.36 0.43 0.28 0.06 0.19 0.40 0.15 0.08 0.06 0.02 0.01 0.00 0.00 0.00 0.00 0.00 0.00 0.01 0.03 0.02 0.00 0.00 0.00 0.00 0.00 0.00 0.00 0.00 0.00 0.00 0.00 0.00 0.00 0.00 0.00 0.00 0.00 0.00 0.00
MSLP
1009.35 1009.22 1007.87 1007.36 1007.73 1007.72 1007.50 1007.32 1006.86 1006.24 1005.54 1005.19 1004.43 1003.17 1002.97 1002.75 1002.20 1001.72 1001.31 1000.99 1000.48 1000.15 1000.01 999.83 999.67 999.33 999.03 999.05 999.12 998.93 999.14 999.18 999.99 1000.76 1001.52 1002.40 1002.56 1003.32 1003.96 1004.34 1004.81 1005.33 1005.84 1006.15
1009.80 1008.66 1008.23 1008.03 1007.88 1007.77 1007.63 1007.52 1007.16 1006.66 1005.89 1005.57 1004.89 1003.87 1003.36 1002.88 1001.97 1001.25 1000.70 1000.47 1000.27 1000.03 999.89 999.54 999.01 998.77 998.88 998.89 998.62 998.46 998.58 999.01 999.37 1000.03 1000.41 1001.17 1001.93 1003.04 1003.61 1003.95 1004.45 1004.96 1005.57 1006.19
1009.57 1008.71 1008.14 1007.74 1007.51 1007.50 1007.44 1007.43 1007.35 1007.19 1006.25 1005.59 1005.47 1003.46 1002.89 1001.84 1001.02 1000.47 999.97 999.78 999.62 999.45 999.38 998.94 998.69 998.44 998.26 998.37 998.04 997.99 998.10 998.57 999.12 999.94 1000.42 1001.39 1002.11 1003.04 1003.57 1003.76 1004.19 1004.83 1005.42 1005.89
1008.75 1007.99 1007.83 1007.56 1007.30 1007.45 1007.49 1007.38 1007.29 1007.27 1007.12 1006.58 1005.84 1003.38 1002.21 1001.52 1000.49 999.99 999.78 999.18 998.86 998.85 998.52 998.28 998.23 998.06 997.66 997.30 997.44 997.34 997.79 998.17 998.50 999.31 1000.02 1000.87 1001.49 1002.41 1002.64 1003.09 1003.82 1004.68 1005.27 1005.76
1008.15 1007.50 1007.26 1007.19 1006.88 1006.92 1006.95 1007.27 1007.70 1007.83 1007.76 1007.39 1006.34 1005.57 1000.21 1000.28 999.44 999.22 998.94 998.25 998.03 997.74 997.87 997.69 997.55 997.44 997.07 997.23 997.23 997.40 997.87 998.20 998.49 999.05 999.70 1000.53 1001.32 1001.81 1002.43 1003.10 1003.94 1004.78 1005.49 1005.92
1007.88 1007.18 1006.88 1006.46 1006.44 1006.43 1006.68 1007.08 1007.83 1008.23 1008.35 1007.49 1006.28 1006.11 999.78 999.89 998.62 998.35 997.92 997.71 997.50 997.36 997.27 997.07 996.99 997.11 997.16 997.21 997.33 997.67 997.72 998.22 998.63 999.22 999.81 1000.30 1000.90 1001.76 1002.71 1003.47 1004.20 1004.81 1005.54 1006.08
1007.91 1006.82 1006.26 1006.15 1006.33 1006.43 1006.74 1007.16 1008.27 1009.19 1008.88 1006.66 1005.29 1005.44 1000.04 998.83 998.31 997.99 997.97 997.38 997.25 996.83 996.89 996.77 996.79 997.23 997.47 997.35 997.51 997.54 997.81 998.49 998.94 999.50 1000.04 1000.55 1000.88 1001.69 1002.56 1003.41 1004.26 1005.07 1005.79 1006.32
1008.41 1007.06 1006.14 1005.58 1005.85 1005.97 1006.46 1006.94 1007.09 1007.61 1007.50 1006.29 1005.45 1003.14 999.97 998.45 997.57 996.97 997.29 997.26 996.81 996.44 996.27 996.34 996.74 997.20 997.22 997.47 997.64 997.82 998.21 998.93 999.41 999.89 1000.51 1000.91 1001.28 1002.01 1002.85 1003.49 1004.27 1004.94 1005.58 1006.10
1008.52 1007.90 1006.50 1005.69 1005.31 1005.50 1006.08 1006.44 1006.35 1007.01 1006.82 1006.18 1004.32 1001.43 999.92 998.05 997.56 997.34 997.35 997.01 996.67 996.09 996.03 996.40 996.85 997.06 997.40 997.69 998.01 998.09 998.49 999.16 999.76 1000.30 1000.89 1001.27 1001.79 1002.46 1003.22 1003.99 1004.55 1005.23 1005.72 1006.07
1009.15 1008.33 1007.25 1006.72 1006.06 1005.39 1005.37 1005.73 1006.58 1007.06 1006.93 1006.09 1003.45 1001.63 999.74 998.33 998.36 997.89 997.65 997.39 996.37 995.79 996.13 996.60 997.00 997.30 997.73 998.12 998.38 998.64 999.02 999.43 1000.08 1000.55 1001.02 1001.62 1002.21 1002.77 1003.47 1004.15 1004.89 1005.39 1005.74 1006.00
1009.70 1009.53 1008.02 1007.13 1006.50 1006.09 1006.04 1005.86 1006.37 1006.55 1006.36 1005.42 1003.68 1001.18 999.04 998.16 998.33 998.40 998.00 997.23 996.53 995.92 996.39 996.67 997.13 997.56 998.04 998.46 998.90 999.15 999.50 1000.03 1000.54 1001.00 1001.49 1002.03 1002.68 1003.25 1003.88 1004.45 1004.93 1005.26 1005.72 1006.06
1010.21 1010.27 1009.45 1008.19 1007.13 1006.79 1006.86 1006.68 1006.76 1006.95 1006.43 1005.34 1004.44 1002.05 998.85 998.80 998.53 998.40 998.09 997.46 996.91 996.72 996.71 996.73 997.28 997.76 998.32 998.77 999.32 999.64 1000.04 1000.41 1001.06 1001.52 1001.98 1002.58 1003.14 1003.70 1004.23 1004.70 1005.06 1005.45 1005.84 1006.19
1010.58 1010.83 1010.45 1008.89 1008.22 1007.63 1007.59 1007.30 1007.25 1007.13 1006.89 1005.57 1004.57 1001.75 999.02 998.25 998.38 998.45 998.05 997.57 997.45 997.33 997.40 997.15 997.55 998.09 998.50 999.13 999.66 1000.03 1000.44 1000.91 1001.44 1001.88 1002.40 1003.10 1003.58 1004.04 1004.47 1004.83 1005.18 1005.54 1005.86 1006.28
1010.88 1011.09 1010.89 1010.15 1009.09 1008.66 1008.43 1007.74 1007.67 1007.43 1006.81 1005.38 1003.75 1002.85 999.99 999.32 999.59 998.77 998.23 998.07 997.70 997.60 997.70 997.91 997.69 998.35 998.78 999.40 999.96 1000.36 1000.88 1001.26 1001.76 1002.19 1002.69 1003.34 1003.82 1004.26 1004.59 1004.92 1005.36 1005.66 1005.95 1006.27
1011.14 1011.35 1011.13 1010.53 1009.76 1009.09 1008.43 1007.70 1007.29 1006.94 1006.16 1005.59 1004.35 1003.25 1000.79 1000.55 999.99 999.20 998.53 997.89 997.80 997.66 997.87 998.19 998.21 998.45 999.06 999.68 1000.13 1000.65 1001.10 1001.54 1001.90 1002.36 1002.89 1003.48 1004.00 1004.37 1004.69 1005.03 1005.45 1005.80 1006.02 1006.11
1010.89 1010.91 1010.86 1010.24 1009.48 1008.80 1007.92 1006.80 1006.30 1005.90 1005.41 1004.64 1004.40 1003.23 1001.69 1000.31 999.48 998.94 998.30 997.63 997.56 997.39 997.46 998.06 998.73 998.71 999.13 999.69 1000.22 1000.80 1001.27 1001.71 1001.97 1002.54 1003.11 1003.57 1003.97 1004.40 1004.74 1005.11 1005.52 1005.89 1005.99 1006.10
1010.51 1010.73 1010.80 1009.98 1008.92 1008.39 1007.10 1005.72 1004.86 1003.97 1003.63 1003.53 1003.32 1002.37 1001.05 1000.17 999.38 998.58 997.97 997.43 997.03 997.01 997.14 997.68 998.38 999.01 999.09 999.64 1000.11 1000.74 1001.31 1001.73 1002.15 1002.66 1003.10 1003.59 1004.12 1004.55 1004.88 1005.28 1005.64 1005.90 1006.06 1006.13
1010.10 1010.32 1010.56 1009.91 1009.13 1007.83 1004.83 1004.22 1003.42 1002.52 1002.31 1002.35 1002.18 1000.98 1000.45 999.99 998.94 998.20 997.43 997.02 996.59 996.71 997.15 997.56 998.25 999.13 999.31 999.68 1000.18 1000.75 1001.36 1001.83 1002.27 1002.67 1003.03 1003.54 1004.19 1004.64 1005.03 1005.34 1005.78 1006.04 1006.17 1006.35
1009.51 1009.79 1010.06 1009.67 1008.68 1006.37 1004.38 1004.26 1003.89 1003.25 1001.99 1001.52 1001.52 1000.70 1000.38 999.78 998.91 997.40 996.76 996.37 996.14 996.38 996.91 997.36 997.99 999.03 999.58 999.83 1000.20 1000.80 1001.53 1002.01 1002.29 1002.64 1003.04 1003.55 1004.16 1004.65 1005.09 1005.49 1005.96 1006.17 1006.41 1006.66
1008.68 1009.04 1009.33 1009.04 1008.39 1006.84 1005.42 1004.84 1004.59 1003.73 1002.33 1001.04 1000.83 1000.48 1000.30 1000.27 999.10 997.34 996.77 996.47 996.10 996.35 996.74 997.34 998.01 998.83 999.55 1000.02 1000.32 1000.99 1001.61 1002.11 1002.32 1002.60 1002.95 1003.52 1004.10 1004.59 1005.02 1005.48 1006.06 1006.29 1006.56 1006.82
1008.27 1008.36 1008.62 1008.67 1007.95 1006.75 1005.80 1005.46 1005.10 1003.89 1002.51 1001.11 1000.66 1000.39 999.88 999.51 998.05 996.97 996.42 996.46 995.98 996.14 996.80 997.24 997.98 998.73 999.24 999.96 1000.44 1001.07 1001.58 1001.92 1002.03 1002.47 1003.00 1003.61 1004.06 1004.54 1005.00 1005.57 1005.98 1006.21 1006.59 1006.99
1008.65 1008.58 1008.28 1008.12 1007.67 1006.97 1006.04 1005.48 1004.62 1003.10 1001.86 1001.20 1000.63 1000.11 999.90 999.00 997.47 996.74 996.24 996.15 995.96 996.05 996.68 997.24 997.88 998.55 999.10 999.80 1000.32 1001.01 1001.39 1001.56 1002.02 1002.48 1003.07 1003.60 1004.06 1004.68 1005.18 1005.65 1006.09 1006.44 1006.76 1007.23
1008.79 1008.92 1008.62 1008.07 1007.28 1006.65 1006.20 1005.34 1003.96 1002.84 1002.30 1000.99 1000.40 999.56 999.15 998.46 997.71 996.88 996.37 995.52 994.86 995.98 996.78 997.12 997.58 998.29 998.91 999.59 999.99 1000.70 1001.03 1001.53 1001.98 1002.60 1003.18 1003.69 1004.25 1004.76 1005.31 1005.83 1006.28 1006.60 1006.90 1007.22
1008.47 1008.34 1008.17 1007.70 1006.81 1006.20 1005.47 1003.97 1002.48 1001.82 1001.07 1000.79 999.89 999.69 999.07 998.81 998.04 997.37 997.11 996.89 996.71 996.70 996.73 996.54 997.36 998.11 998.82 999.27 999.79 1000.08 1000.85 1001.35 1001.89 1002.66 1003.24 1003.77 1004.34 1004.91 1005.46 1005.90 1006.33 1006.79 1007.13 1007.27
1008.14 1007.63 1007.33 1006.97 1006.22 1005.58 1005.29 1003.87 1002.87 1001.77 1001.44 1000.52 1000.48 1000.09 999.74 999.32 998.50 998.08 997.91 997.67 997.38 996.99 996.40 996.54 997.24 997.53 998.33 998.86 999.55 1000.09 1000.70 1001.20 1001.97 1002.58 1003.18 1003.79 1004.41 1004.91 1005.54 1006.05 1006.64 1006.79 1006.88 1006.93
1007.88 1007.39 1007.08 1006.82 1006.29 1005.93 1005.29 1004.34 1003.13 1002.26 1002.13 1002.01 1001.47 1001.04 1000.50 999.62 999.04 998.46 998.34 998.15 997.37 996.71 996.94 997.09 997.56 997.76 998.17 998.73 999.37 1000.02 1000.55 1001.03 1001.89 1002.68 1003.30 1003.77 1004.38 1004.96 1005.42 1006.09 1006.87 1007.02 1006.91 1006.90
Thickness
5565 5560 5589 5613 5612 5616 5613 5614 5620 5632 5648 5652 5662 5678 5692 5701 5707 5718 5730 5741 5749 5756 5767 5770 5775 5780 5784 5784 5785 5787 5786 5785 5777 5770 5762 5753 5751 5743 5736 5732 5725 5721 5715 5710
5529 5544 5577 5587 5585 5591 5593 5595 5601 5617 5633 5637 5649 5654 5676 5685 5701 5716 5727 5733 5738 5746 5751 5760 5770 5776 5777 5778 5780 5783 5781 5777 5774 5770 5765 5757 5748 5737 5730 5727 5723 5717 5710 5705
5502 5535 5554 5560 5565 5573 5578 5582 5590 5597 5619 5634 5635 5650 5666 5689 5702 5716 5726 5733 5740 5746 5745 5755 5764 5767 5771 5771 5778 5778 5777 5773 5770 5764 5757 5746 5739 5729 5723 5721 5717 5711 5706 5700
5495 5520 5530 5532 5544 5554 5550 5577 5587 5595 5597 5601 5628 5617 5660 5686 5698 5708 5716 5729 5738 5737 5746 5752 5755 5760 5768 5774 5774 5776 5773 5771 5768 5759 5750 5743 5736 5727 5725 5721 5715 5707 5700 5694
5502 5517 5521 5515 5530 5540 5550 5567 5573 5577 5578 5591 5610 5592 5683 5693 5694 5705 5719 5731 5735 5741 5741 5747 5753 5759 5767 5768 5769 5770 5766 5764 5760 5753 5748 5740 5733 5728 5724 5717 5709 5699 5692 5688
5503 5514 5513 5519 5529 5536 5554 5553 5557 5563 5563 5562 5603 5594 5670 5681 5702 5707 5716 5723 5731 5736 5741 5746 5754 5757 5757 5761 5763 5762 5761 5756 5752 5747 5742 5737 5732 5724 5715 5708 5700 5693 5685 5680
5492 5504 5516 5520 5517 5527 5534 5531 5519 5522 5530 5578 5609 5597 5672 5686 5696 5703 5708 5718 5725 5734 5740 5746 5749 5748 5750 5755 5756 5756 5754 5748 5744 5740 5735 5731 5727 5720 5711 5702 5694 5686 5678 5672
5478 5496 5507 5522 5517 5522 5520 5527 5522 5536 5549 5585 5609 5610 5656 5687 5705 5710 5711 5715 5724 5732 5741 5745 5745 5744 5749 5749 5749 5747 5743 5738 5735 5732 5725 5722 5719 5712 5703 5696 5688 5681 5674 5668
5488 5486 5508 5514 5526 5528 5523 5516 5549 5543 5561 5571 5591 5636 5661 5690 5696 5702 5706 5711 5720 5730 5737 5740 5740 5743 5743 5741 5739 5738 5736 5732 5728 5723 5717 5713 5709 5702 5694 5686 5680 5673 5668 5663
5488 5490 5504 5509 5518 5526 5529 5539 5525 5521 5549 5564 5599 5621 5636 5669 5677 5692 5697 5705 5720 5733 5732 5734 5736 5737 5734 5732 5731 5730 5729 5726 5720 5716 5711 5705 5699 5694 5687 5680 5672 5666 5662 5659
5474 5476 5499 5508 5512 5512 5517 5522 5527 5534 5542 5567 5590 5610 5644 5666 5677 5680 5688 5707 5719 5724 5728 5732 5731 5730 5728 5726 5723 5722 5721 5716 5712 5708 5704 5698 5691 5686 5679 5672 5667 5663 5658 5655
5473 5462 5472 5493 5504 5508 5510 5515 5521 5521 5549 5562 5568 5592 5644 5657 5664 5675 5688 5701 5708 5716 5723 5728 5727 5725 5722 5719 5716 5715 5712 5709 5704 5701 5696 5690 5684 5677 5671 5666 5662 5658 5655 5651
5466 5455 5458 5485 5495 5496 5497 5510 5514 5515 5521 5542 5561 5594 5640 5656 5659 5670 5681 5697 5703 5711 5714 5721 5722 5719 5717 5712 5709 5708 5705 5701 5697 5694 5689 5682 5675 5670 5665 5662 5659 5655 5652 5647
5460 5444 5455 5449 5484 5481 5478 5495 5503 5508 5507 5550 5570 5583 5631 5642 5638 5660 5679 5688 5697 5707 5710 5711 5717 5713 5711 5707 5704 5701 5696 5695 5691 5688 5683 5675 5670 5665 5662 5658 5654 5651 5648 5644
5447 5445 5448 5456 5468 5477 5480 5488 5497 5505 5528 5526 5556 5566 5613 5621 5633 5654 5669 5684 5691 5701 5705 5705 5707 5708 5704 5700 5698 5695 5691 5689 5687 5683 5677 5671 5665 5660 5656 5652 5648 5646 5643 5643
5444 5449 5455 5463 5472 5476 5481 5499 5498 5505 5520 5538 5547 5563 5604 5624 5638 5652 5668 5683 5690 5698 5704 5701 5698 5702 5701 5698 5694 5690 5688 5684 5683 5678 5672 5666 5662 5656 5653 5648 5645 5642 5641 5641
5446 5449 5448 5446 5479 5476 5472 5494 5502 5520 5534 5542 5540 5576 5606 5618 5636 5651 5666 5681 5692 5698 5701 5700 5698 5696 5699 5696 5693 5688 5685 5682 5679 5674 5669 5664 5658 5654 5650 5646 5643 5640 5640 5640
5450 5450 5443 5442 5443 5433 5503 5505 5518 5527 5537 5544 5551 5589 5606 5616 5636 5650 5667 5679 5692 5698 5697 5697 5697 5691 5694 5693 5689 5686 5682 5679 5676 5672 5668 5663 5657 5652 5647 5645 5641 5639 5639 5638
5455 5457 5450 5438 5448 5487 5509 5502 5504 5511 5534 5546 5555 5589 5600 5615 5633 5656 5673 5683 5693 5696 5693 5694 5695 5689 5687 5689 5688 5684 5678 5675 5674 5670 5666 5662 5656 5650 5646 5643 5638 5637 5636 5635
5467 5463 5458 5455 5459 5472 5483 5490 5491 5502 5526 5549 5564 5586 5597 5603 5622 5650 5669 5678 5688 5691 5693 5692 5692 5689 5685 5685 5685 5680 5675 5672 5671 5668 5666 5660 5655 5650 5646 5642 5637 5635 5634 5634
5472 5467 5463 5463 5467 5476 5485 5484 5484 5515 5531 5545 5569 5582 5595 5610 5635 5655 5668 5675 5686 5691 5691 5692 5690 5687 5687 5684 5682 5677 5674 5672 5673 5670 5665 5659 5655 5650 5645 5640 5638 5636 5633 5632
5473 5476 5473 5474 5475 5484 5476 5478 5501 5512 5530 5547 5567 5583 5595 5613 5639 5654 5664 5675 5685 5689 5691 5692 5689 5686 5686 5684 5681 5675 5675 5676 5672 5669 5663 5658 5654 5649 5643 5639 5636 5634 5632 5631
5473 5463 5468 5474 5482 5472 5469 5473 5487 5501 5516 5550 5566 5587 5599 5618 5632 5651 5665 5682 5691 5689 5688 5691 5691 5687 5686 5685 5684 5678 5679 5676 5673 5666 5661 5658 5653 5648 5643 5638 5634 5631 5630 5631
5467 5465 5465 5469 5475 5476 5483 5494 5516 5524 5540 5555 5573 5588 5603 5613 5633 5649 5660 5667 5672 5680 5686 5696 5691 5688 5685 5687 5686 5686 5680 5677 5674 5666 5661 5658 5654 5648 5642 5638 5635 5631 5629 5630
5481 5483 5481 5480 5486 5490 5485 5502 5515 5531 5542 5560 5570 5584 5597 5613 5631 5643 5650 5660 5668 5676 5690 5693 5692 5692 5691 5691 5687 5684 5681 5679 5672 5666 5663 5659 5655 5651 5644 5639 5635 5633 5633 5636
5486 5487 5484 5487 5487 5486 5490 5501 5518 5528 5538 5549 5562 5576 5592 5612 5626 5640 5646 5654 5666 5679 5683 5687 5688 5689 5692 5691 5688 5684 5683 5680 5673 5666 5663 5661 5657 5653 5649 5642 5635 5628 5633 5636